Weather History for Merrill, WI

Change the Weather History Date:

Tuesday, November 26, 2013

  Actual Average Record
Temperature  
Mean Temperature 20 °F -  
Max Temperature 32 °F 35 °F 61 °F (1914)
Min Temperature 8 °F 18 °F -9 °F (1977)
Degree Days  
Heating Degree Days 45    
Moisture  
Dew Point 7 °F    
Average Humidity 62    
Maximum Humidity 83    
Minimum Humidity 47    
Precipitation  
Precipitation 0.00 in - - ()
Sea Level Pressure  
Sea Level Pressure 30.05 in    
Wind  
Wind Speed 10 mph (NW)    
Max Wind Speed 20 mph    
Max Gust Speed 33 mph    
Visibility 10 miles    
Events Snow    
Averages and records for this station are not official NWS values.
T = Trace of Precipitation, MM = Missing Value Source: NWS Daily Summary

Daily Weather History Graph

Daily Weather History Graph

Search for Another Location

Airport:

Trip Planner

Search our weather history database for the weather conditions in past years. The results will help you decide how hot, cold, wet, or windy it might be!

Date:

Astronomy

Nov. 26, 2013 Rise Set
Actual Time 7:11 AM CST 4:20 PM CST
Civil Twilight 6:38 AM CST 4:53 PM CST
Nautical Twilight 6:02 AM CST 5:29 PM CST
Astronomical Twilight 5:27 AM CST 6:05 PM CST
Moon No Moon Rise 12:43 PM CST (11/26)
Length of Visible Light 10h 14m
Length of Day
9h 08m
Last Quarter, 41% of the Moon is Illuminated
Nov 26
Last Quarter
Dec 2
New
Dec 9
First Quarter
Dec 17
Full
Dec 25
Last Quarter

Hourly Weather History & Observations

Time (CST) Temp. Windchill Dew Point Humidity Pressure Visibility Wind Dir Wind Speed Gust Speed Precip Events Conditions
12:15 AM 32.0 °F 23.6 °F 24.1 °F 73% 29.90 in 10.0 mi West 10.4 mph - N/A   Overcast
12:35 AM 32.0 °F 24.2 °F 24.3 °F 73% 29.90 in 10.0 mi WNW 9.2 mph - N/A   Overcast
12:55 AM 31.1 °F 20.5 °F 22.6 °F 71% 29.91 in 10.0 mi NW 15.0 mph 20.7 mph N/A   Overcast
1:15 AM 30.4 °F 21.5 °F 20.1 °F 66% 29.92 in 10.0 mi NW 10.4 mph 16.1 mph N/A   Overcast
1:35 AM 30.2 °F 19.8 °F 19.2 °F 64% 29.92 in 10.0 mi WNW 13.8 mph 20.7 mph N/A   Overcast
1:55 AM 29.1 °F 19.4 °F 17.2 °F 61% 29.93 in 10.0 mi WNW 11.5 mph 20.7 mph N/A   Overcast
2:15 AM 28.6 °F 17.2 °F 16.0 °F 59% 29.93 in 10.0 mi WNW 15.0 mph 24.2 mph N/A   Overcast
2:35 AM 28.4 °F 17.0 °F 15.3 °F 58% 29.93 in 10.0 mi NW 15.0 mph 21.9 mph N/A   Overcast
2:55 AM 28.2 °F 20.2 °F 15.6 °F 59% 29.93 in 10.0 mi NW 8.1 mph 16.1 mph N/A   Overcast
3:15 AM 27.9 °F 19.1 °F 16.2 °F 62% 29.93 in 10.0 mi WNW 9.2 mph 20.7 mph N/A   Overcast
3:35 AM 27.1 °F 15.4 °F 16.5 °F 64% 29.94 in 10.0 mi NW 15.0 mph 19.6 mph N/A   Overcast
3:55 AM 26.2 °F 15.8 °F 15.3 °F 63% 29.95 in 10.0 mi NW 11.5 mph 18.4 mph N/A   Overcast
4:15 AM 25.3 °F 12.2 °F 13.3 °F 60% 29.96 in 10.0 mi WNW 17.3 mph 21.9 mph N/A   Overcast
4:35 AM 24.4 °F 10.2 °F 13.1 °F 62% 29.97 in 10.0 mi NW 19.6 mph 24.2 mph N/A   Overcast
4:55 AM 22.6 °F 8.3 °F 5.5 °F 48% 29.99 in 10.0 mi NW 18.4 mph 33.4 mph N/A   Overcast
5:15 AM 21.9 °F 10.4 °F 4.3 °F 47% 29.99 in 10.0 mi NNW 11.5 mph 21.9 mph N/A   Scattered Clouds
5:35 AM 21.7 °F 14.3 °F 5.5 °F 50% 29.98 in 10.0 mi NW 5.8 mph - N/A   Clear
5:55 AM 21.2 °F 13.6 °F 5.9 °F 52% 29.98 in 10.0 mi NW 5.8 mph - N/A   Mostly Cloudy
6:15 AM 21.2 °F 16.4 °F 5.7 °F 51% 29.98 in 10.0 mi NW 3.5 mph - N/A   Overcast
6:35 AM 21.0 °F 14.6 °F 5.9 °F 52% 29.98 in 10.0 mi NW 4.6 mph - N/A   Mostly Cloudy
6:55 AM 20.8 °F 16.0 °F 5.5 °F 52% 29.98 in 10.0 mi NNW 3.5 mph - N/A   Scattered Clouds
7:15 AM 20.5 °F - 5.5 °F 53% 29.99 in 10.0 mi Calm Calm - N/A   Mostly Cloudy
7:35 AM 20.3 °F - 5.5 °F 53% 29.99 in 10.0 mi Calm Calm - N/A   Overcast
7:55 AM 19.9 °F - 5.5 °F 54% 30.00 in 10.0 mi Calm Calm - N/A   Overcast
8:15 AM 21.0 °F - 6.6 °F 54% 30.00 in 10.0 mi Calm Calm - N/A   Overcast
8:35 AM 21.2 °F - 6.8 °F 54% 30.01 in 10.0 mi Calm Calm - N/A   Overcast
8:55 AM 21.7 °F - 6.3 °F 51% 30.01 in 10.0 mi Calm Calm - N/A   Overcast
9:15 AM 22.1 °F 13.7 °F 7.5 °F 54% 30.01 in 10.0 mi WNW 6.9 mph - N/A   Overcast
9:35 AM 21.9 °F 15.7 °F 10.0 °F 60% 30.02 in 10.0 mi NNW 4.6 mph - N/A   Overcast
9:55 AM 21.6 °F 14.0 °F 11.5 °F 65% 30.01 in 10.0 mi North 5.8 mph - N/A   Overcast
10:15 AM 21.2 °F 12.6 °F 14.4 °F 75% 30.01 in 2.5 mi NW 6.9 mph - N/A Snow Light Snow
10:35 AM 21.2 °F 13.6 °F 15.4 °F 78% 30.01 in 3.0 mi North 5.8 mph - N/A Snow Light Snow
10:55 AM 19.2 °F 5.8 °F 14.9 °F 83% 30.02 in 0.5 mi NW 13.8 mph 21.9 mph N/A Snow Light Snow
11:15 AM 17.6 °F 4.3 °F 11.5 °F 77% 30.03 in 2.0 mi NNW 12.7 mph 20.7 mph N/A Snow Light Snow
11:35 AM 18.0 °F 1.7 °F 8.1 °F 65% 30.03 in 7.0 mi NW 19.6 mph 25.3 mph N/A   Overcast
11:55 AM 17.4 °F 2.9 °F 6.6 °F 63% 30.04 in 10.0 mi NNW 15.0 mph 20.7 mph N/A   Overcast
12:15 PM 17.4 °F 4.1 °F 6.3 °F 62% 30.04 in 10.0 mi North 12.7 mph - N/A   Overcast
12:35 PM 17.4 °F 1.9 °F 5.2 °F 59% 30.04 in 10.0 mi NW 17.3 mph 23.0 mph N/A   Overcast
12:55 PM 17.8 °F 4.0 °F 4.5 °F 56% 30.05 in 10.0 mi NW 13.8 mph 19.6 mph N/A   Mostly Cloudy
1:15 PM 18.3 °F 4.1 °F 2.5 °F 50% 30.04 in 10.0 mi NNW 15.0 mph 23.0 mph N/A   Scattered Clouds
1:35 PM 18.9 °F 3.8 °F 3.6 °F 51% 30.05 in 10.0 mi NNW 17.3 mph 21.9 mph N/A   Mostly Cloudy
1:55 PM 17.1 °F 3.6 °F 1.8 °F 51% 30.05 in 10.0 mi NW 12.7 mph 18.4 mph N/A   Scattered Clouds
2:15 PM 17.8 °F 2.9 °F 1.0 °F 48% 30.06 in 10.0 mi NNW 16.1 mph 21.9 mph N/A   Mostly Cloudy
2:35 PM 16.9 °F 4.8 °F 1.2 °F 50% 30.07 in 10.0 mi NNW 10.4 mph 23.0 mph N/A   Mostly Cloudy
2:55 PM 17.4 °F 5.4 °F 2.1 °F 51% 30.08 in 10.0 mi NNW 10.4 mph - N/A   Mostly Cloudy
3:15 PM 16.7 °F 3.2 °F 2.1 °F 53% 30.09 in 10.0 mi NNW 12.7 mph 17.3 mph N/A   Mostly Cloudy
3:35 PM 16.0 °F 2.3 °F 1.2 °F 52% 30.10 in 10.0 mi North 12.7 mph - N/A   Scattered Clouds
3:55 PM 15.8 °F 6.1 °F 0.9 °F 52% 30.11 in 10.0 mi NW 6.9 mph 11.5 mph N/A   Mostly Cloudy
4:15 PM 15.4 °F 3.0 °F 0.7 °F 52% 30.12 in 10.0 mi NNW 10.4 mph 16.1 mph N/A   Overcast
4:35 PM 14.5 °F 1.1 °F 0.5 °F 54% 30.13 in 10.0 mi NNW 11.5 mph 21.9 mph N/A   Overcast
4:55 PM 13.8 °F 1.8 °F 2.3 °F 60% 30.14 in 10.0 mi NNW 9.2 mph 17.3 mph N/A   Mostly Cloudy
5:15 PM 13.8 °F 1.8 °F 1.6 °F 58% 30.15 in 10.0 mi NNW 9.2 mph 18.4 mph N/A   Overcast
5:35 PM 12.7 °F 1.4 °F 0.9 °F 59% 30.16 in 10.0 mi North 8.1 mph - N/A   Scattered Clouds
5:55 PM 12.0 °F 2.7 °F -0.0 °F 59% 30.16 in 10.0 mi NNW 5.8 mph - N/A   Clear
6:15 PM 11.3 °F 0.7 °F 0.3 °F 61% 30.17 in 10.0 mi NNW 6.9 mph - N/A   Clear
6:35 PM 11.3 °F -0.4 °F 1.0 °F 63% 30.17 in 10.0 mi NW 8.1 mph - N/A   Clear
6:55 PM 10.9 °F -0.8 °F 1.4 °F 65% 30.17 in 10.0 mi NNW 8.1 mph - N/A   Clear
7:15 PM 10.8 °F -1.1 °F 1.6 °F 67% 30.17 in 10.0 mi NW 8.1 mph - N/A   Clear
7:35 PM 10.0 °F -0.9 °F 2.1 °F 70% 30.17 in 10.0 mi NW 6.9 mph - N/A   Clear
7:55 PM 9.9 °F -2.2 °F 2.3 °F 71% 30.18 in 10.0 mi NW 8.1 mph - N/A   Clear
8:15 PM 9.5 °F -2.6 °F 2.8 °F 74% 30.17 in 10.0 mi NW 8.1 mph - N/A   Clear
8:35 PM 9.5 °F -3.5 °F 2.8 °F 74% 30.17 in 10.0 mi NW 9.2 mph - N/A   Clear
8:55 PM 9.5 °F -2.6 °F 3.0 °F 75% 30.17 in 10.0 mi NW 8.1 mph - N/A   Clear
9:15 PM 9.5 °F -2.6 °F 3.0 °F 75% 30.17 in 10.0 mi NW 8.1 mph - N/A   Clear
9:35 PM 9.3 °F -3.8 °F 3.2 °F 76% 30.17 in 10.0 mi NW 9.2 mph - N/A   Clear
9:55 PM 9.5 °F -3.5 °F 3.6 °F 77% 30.17 in 10.0 mi NW 9.2 mph - N/A   Clear
10:15 PM 9.1 °F -0.7 °F 3.6 °F 78% 30.17 in 10.0 mi NW 5.8 mph - N/A   Clear
10:35 PM 9.0 °F -0.9 °F 3.6 °F 79% 30.18 in 10.0 mi NW 5.8 mph - N/A Snow Light Snow
10:55 PM 9.0 °F 0.6 °F 3.7 °F 79% 30.19 in 10.0 mi NW 4.6 mph - N/A   Clear
11:15 PM 8.6 °F -1.3 °F 3.7 °F 81% 30.19 in 10.0 mi NW 5.8 mph - N/A   Clear
11:35 PM 8.2 °F -0.3 °F 3.7 °F 82% 30.18 in 10.0 mi NW 4.6 mph - N/A   Clear
11:55 PM 8.2 °F -3.0 °F 3.9 °F 83% 30.18 in 10.0 mi NW 6.9 mph - N/A   Clear